QPF
0.00 0.00 0.00 0.00 0.00 0.00 0.00 0.00 0.00 0.00 0.00 0.00 0.00 0.00 0.00 0.00 0.00 0.00 0.00 0.00 0.00 0.00 0.00 0.00 0.00 0.00 0.00 0.00 0.00 0.00 0.00 0.00 0.00 0.00 0.00 0.00 0.00 0.00 0.04 0.01 0.00 0.00 0.02 0.31
0.00 0.00 0.00 0.00 0.00 0.00 0.00 0.00 0.00 0.00 0.00 0.00 0.00 0.00 0.00 0.00 0.00 0.00 0.00 0.00 0.00 0.00 0.00 0.00 0.00 0.00 0.00 0.00 0.00 0.00 0.00 0.00 0.00 0.00 0.00 0.00 0.00 0.00 0.01 0.01 0.00 0.03 0.04 0.14
0.00 0.00 0.00 0.00 0.00 0.00 0.00 0.00 0.00 0.00 0.00 0.00 0.00 0.00 0.00 0.00 0.00 0.00 0.00 0.00 0.00 0.00 0.00 0.00 0.00 0.00 0.00 0.00 0.00 0.00 0.00 0.00 0.00 0.00 0.00 0.00 0.00 0.00 0.04 0.01 0.02 0.00 0.01 0.05
0.00 0.00 0.00 0.00 0.00 0.00 0.00 0.00 0.00 0.00 0.00 0.00 0.00 0.00 0.00 0.00 0.00 0.00 0.00 0.00 0.00 0.00 0.00 0.00 0.00 0.00 0.00 0.00 0.00 0.00 0.00 0.00 0.02 0.00 0.01 0.08 0.05 0.08 0.02 0.06 0.00 0.00 0.02 0.01
0.00 0.00 0.00 0.00 0.00 0.00 0.00 0.00 0.00 0.00 0.00 0.00 0.00 0.00 0.00 0.00 0.00 0.00 0.00 0.00 0.00 0.00 0.00 0.00 0.00 0.00 0.00 0.00 0.00 0.00 0.00 0.00 0.00 0.00 0.01 0.06 0.13 0.13 0.05 0.00 0.01 0.01 0.00 0.01
0.00 0.00 0.00 0.00 0.00 0.00 0.00 0.00 0.00 0.00 0.00 0.00 0.00 0.00 0.00 0.00 0.00 0.00 0.00 0.00 0.00 0.00 0.00 0.00 0.00 0.00 0.00 0.00 0.00 0.00 0.00 0.00 0.00 0.00 0.01 0.08 0.22 0.25 0.20 0.13 0.11 0.02 0.00 0.00
0.00 0.00 0.00 0.00 0.00 0.00 0.00 0.00 0.00 0.00 0.00 0.00 0.00 0.00 0.00 0.00 0.00 0.00 0.00 0.00 0.00 0.00 0.00 0.00 0.00 0.00 0.00 0.00 0.00 0.00 0.00 0.00 0.00 0.00 0.00 0.07 0.14 0.10 0.16 0.23 0.12 0.03 0.04 0.01
0.00 0.00 0.00 0.00 0.00 0.00 0.00 0.00 0.00 0.00 0.00 0.00 0.00 0.00 0.00 0.00 0.00 0.00 0.00 0.00 0.00 0.00 0.00 0.00 0.00 0.00 0.00 0.00 0.00 0.00 0.00 0.00 0.00 0.00 0.02 0.08 0.13 0.10 0.13 0.18 0.13 0.01 0.00 0.00
0.00 0.00 0.00 0.00 0.00 0.00 0.00 0.00 0.00 0.00 0.00 0.00 0.00 0.00 0.00 0.00 0.00 0.00 0.00 0.00 0.00 0.00 0.00 0.00 0.00 0.00 0.00 0.00 0.00 0.00 0.00 0.00 0.00 0.00 0.05 0.11 0.20 0.12 0.10 0.10 0.07 0.02 0.00 0.00
0.00 0.00 0.00 0.00 0.00 0.00 0.00 0.00 0.00 0.00 0.00 0.00 0.00 0.00 0.00 0.00 0.00 0.00 0.00 0.00 0.00 0.00 0.00 0.00 0.00 0.00 0.00 0.00 0.00 0.00 0.00 0.00 0.00 0.00 0.00 0.00 0.05 0.06 0.03 0.08 0.12 0.06 0.00 0.00
0.00 0.00 0.00 0.00 0.00 0.00 0.00 0.00 0.00 0.00 0.00 0.00 0.00 0.00 0.00 0.00 0.00 0.00 0.00 0.00 0.00 0.00 0.00 0.00 0.00 0.00 0.00 0.00 0.00 0.00 0.00 0.00 0.00 0.00 0.00 0.00 0.00 0.00 0.00 0.01 0.02 0.00 0.00 0.00
0.00 0.00 0.00 0.00 0.00 0.00 0.00 0.00 0.00 0.00 0.00 0.00 0.00 0.00 0.00 0.00 0.00 0.00 0.00 0.00 0.00 0.00 0.00 0.00 0.00 0.00 0.00 0.00 0.00 0.00 0.00 0.00 0.00 0.00 0.00 0.00 0.00 0.00 0.00 0.00 0.00 0.00 0.00 0.00
0.00 0.00 0.00 0.00 0.00 0.00 0.00 0.00 0.00 0.00 0.00 0.00 0.00 0.00 0.00 0.00 0.00 0.00 0.00 0.00 0.00 0.00 0.00 0.00 0.00 0.00 0.00 0.00 0.00 0.00 0.00 0.00 0.00 0.00 0.00 0.00 0.00 0.00 0.00 0.00 0.00 0.00 0.00 0.01
0.00 0.00 0.00 0.00 0.00 0.00 0.00 0.00 0.00 0.00 0.00 0.00 0.00 0.00 0.00 0.00 0.00 0.00 0.00 0.00 0.00 0.00 0.00 0.00 0.00 0.00 0.00 0.00 0.00 0.00 0.00 0.00 0.00 0.00 0.00 0.00 0.00 0.00 0.00 0.00 0.00 0.00 0.00 0.06
0.00 0.00 0.00 0.00 0.00 0.00 0.00 0.00 0.00 0.00 0.00 0.00 0.00 0.00 0.00 0.00 0.00 0.00 0.00 0.00 0.00 0.00 0.00 0.00 0.00 0.00 0.00 0.00 0.00 0.00 0.00 0.00 0.00 0.01 0.01 0.01 0.01 0.01 0.03 0.02 0.00 0.01 0.01 0.09
0.00 0.00 0.00 0.00 0.00 0.00 0.00 0.00 0.00 0.00 0.00 0.00 0.00 0.00 0.00 0.00 0.00 0.00 0.00 0.00 0.00 0.00 0.00 0.00 0.00 0.00 0.00 0.00 0.00 0.00 0.00 0.00 0.00 0.00 0.00 0.01 0.03 0.06 0.06 0.06 0.05 0.07 0.04 0.08
0.00 0.00 0.00 0.00 0.00 0.00 0.00 0.00 0.00 0.00 0.00 0.00 0.00 0.00 0.00 0.00 0.00 0.00 0.00 0.00 0.00 0.00 0.00 0.00 0.00 0.00 0.00 0.00 0.00 0.00 0.00 0.00 0.00 0.00 0.00 0.00 0.00 0.00 0.00 0.00 0.00 0.01 0.03 0.05
0.00 0.00 0.00 0.00 0.00 0.00 0.00 0.00 0.00 0.00 0.00 0.00 0.00 0.00 0.00 0.00 0.00 0.00 0.00 0.00 0.00 0.00 0.00 0.00 0.00 0.00 0.00 0.00 0.00 0.00 0.00 0.00 0.00 0.00 0.00 0.00 0.00 0.00 0.00 0.00 0.00 0.00 0.00 0.00
0.00 0.00 0.00 0.00 0.00 0.00 0.00 0.00 0.00 0.00 0.00 0.00 0.00 0.00 0.00 0.00 0.00 0.00 0.00 0.00 0.00 0.00 0.00 0.00 0.00 0.00 0.00 0.00 0.00 0.00 0.00 0.00 0.00 0.00 0.00 0.00 0.00 0.00 0.00 0.00 0.00 0.00 0.00 0.00
0.00 0.00 0.00 0.00 0.00 0.00 0.00 0.00 0.00 0.00 0.00 0.00 0.00 0.00 0.00 0.00 0.00 0.00 0.00 0.00 0.00 0.00 0.00 0.00 0.00 0.00 0.00 0.00 0.00 0.00 0.00 0.00 0.00 0.00 0.00 0.00 0.00 0.00 0.00 0.00 0.00 0.00 0.00 0.00
0.00 0.00 0.00 0.00 0.00 0.00 0.00 0.00 0.00 0.00 0.00 0.00 0.00 0.00 0.00 0.00 0.00 0.00 0.00 0.00 0.00 0.00 0.00 0.00 0.00 0.00 0.00 0.00 0.00 0.00 0.00 0.00 0.00 0.00 0.00 0.00 0.00 0.00 0.00 0.00 0.00 0.00 0.00 0.00
0.00 0.00 0.00 0.00 0.00 0.00 0.00 0.00 0.00 0.00 0.00 0.00 0.00 0.00 0.00 0.00 0.00 0.00 0.00 0.00 0.00 0.00 0.00 0.00 0.00 0.00 0.00 0.00 0.00 0.00 0.00 0.00 0.00 0.00 0.00 0.00 0.00 0.00 0.00 0.00 0.00 0.00 0.00 0.00
0.00 0.00 0.00 0.00 0.00 0.00 0.00 0.00 0.00 0.00 0.00 0.00 0.00 0.00 0.00 0.00 0.00 0.00 0.00 0.00 0.00 0.00 0.00 0.00 0.00 0.00 0.00 0.00 0.00 0.00 0.00 0.00 0.00 0.00 0.00 0.00 0.00 0.00 0.00 0.01 0.00 0.00 0.00 0.00
0.00 0.00 0.00 0.00 0.00 0.00 0.00 0.00 0.00 0.00 0.00 0.00 0.00 0.00 0.00 0.00 0.00 0.00 0.00 0.00 0.00 0.00 0.00 0.00 0.00 0.00 0.00 0.00 0.00 0.00 0.00 0.00 0.00 0.00 0.00 0.00 0.00 0.00 0.00 0.00 0.00 0.00 0.00 0.00
0.00 0.00 0.00 0.00 0.00 0.00 0.00 0.00 0.00 0.00 0.00 0.00 0.00 0.00 0.00 0.00 0.00 0.00 0.00 0.00 0.00 0.00 0.00 0.00 0.00 0.00 0.00 0.00 0.00 0.00 0.00 0.00 0.00 0.00 0.00 0.00 0.00 0.00 0.00 0.00 0.00 0.00 0.00 0.00
0.00 0.00 0.00 0.00 0.00 0.00 0.00 0.00 0.00 0.00 0.00 0.00 0.00 0.00 0.00 0.00 0.00 0.00 0.00 0.00 0.00 0.00 0.00 0.00 0.00 0.00 0.00 0.00 0.00 0.00 0.00 0.00 0.00 0.00 0.00 0.00 0.00 0.00 0.00 0.00 0.00 0.00 0.00 0.00
MSLP
1003.35 1002.52 1001.44 1000.52 1000.70 1001.31 1001.66 1001.43 1000.97 1000.86 1001.52 1001.60 1000.93 1001.12 1001.16 1002.64 1002.88 1003.12 1003.12 1003.49 1003.66 1004.24 1005.12 1005.46 1006.25 1006.55 1007.99 1008.30 1009.37 1010.05 1010.76 1011.56 1012.16 1012.40 1012.64 1012.97 1012.79 1013.00 1013.11 1013.33 1013.68 1014.12 1014.36 1014.49
1002.12 1001.70 1000.94 1000.79 1001.77 1001.99 1001.62 1001.15 1000.38 1000.55 1001.35 1001.42 1000.95 1001.11 1001.37 1002.41 1002.85 1003.28 1003.56 1003.72 1003.96 1004.48 1004.96 1005.30 1005.73 1006.09 1006.86 1008.03 1008.46 1009.66 1010.36 1011.23 1012.05 1012.04 1012.24 1012.27 1012.44 1012.32 1012.51 1012.83 1013.21 1013.71 1013.76 1014.37
1001.23 1000.88 1000.86 1001.49 1001.62 1001.72 1001.06 1000.36 1000.07 1000.42 1000.75 1000.76 1000.99 1002.09 1001.87 1002.90 1003.11 1003.39 1003.63 1003.92 1004.11 1004.60 1005.10 1005.16 1005.49 1005.82 1006.22 1006.91 1007.95 1008.89 1009.83 1010.64 1011.50 1011.82 1011.89 1012.11 1012.25 1012.22 1012.27 1012.54 1012.97 1012.97 1013.24 1013.77
1001.37 1000.59 1001.45 1001.49 1001.38 1001.08 1000.12 999.97 1000.67 1000.72 1000.80 999.84 1000.59 1002.73 1002.19 1002.61 1002.60 1003.10 1003.21 1003.67 1004.33 1004.85 1004.97 1005.26 1004.98 1005.47 1005.99 1006.59 1007.42 1008.46 1009.35 1010.15 1010.93 1011.37 1011.47 1011.36 1011.40 1011.64 1011.54 1012.13 1012.39 1012.61 1013.08 1013.03
1001.07 1000.79 1001.32 1001.12 1000.83 1000.67 1000.32 1000.82 1000.65 1000.47 1000.40 999.78 999.97 1003.15 1005.52 1002.64 1002.20 1002.56 1003.19 1003.69 1004.08 1004.67 1004.99 1005.66 1005.49 1005.13 1005.91 1006.50 1007.19 1008.01 1008.89 1009.69 1010.26 1010.69 1011.20 1011.07 1011.34 1011.63 1011.70 1011.63 1011.91 1012.41 1012.41 1012.73
1000.76 1000.99 1000.96 1000.85 1000.72 1000.88 1001.03 1000.91 1000.39 1000.22 999.91 999.56 1000.64 1000.95 1005.59 1003.15 1001.93 1002.41 1003.14 1003.96 1004.22 1004.63 1004.83 1005.70 1006.15 1006.19 1006.59 1007.15 1007.66 1008.21 1008.97 1009.64 1010.19 1010.72 1010.86 1011.27 1011.25 1011.30 1011.95 1011.85 1011.96 1012.03 1012.06 1012.06
1001.17 1000.68 1001.05 1000.96 1000.54 1000.57 1000.73 1000.09 998.94 998.68 998.68 1000.74 1000.98 1000.68 1003.88 1002.15 1002.00 1002.46 1002.96 1003.86 1004.29 1004.50 1005.21 1005.47 1006.27 1006.80 1007.32 1007.79 1008.19 1008.57 1009.09 1009.66 1010.11 1010.66 1010.88 1010.89 1011.42 1011.98 1011.71 1012.67 1012.59 1011.62 1011.34 1012.18
999.77 999.88 1000.10 1000.23 1000.44 999.67 999.49 998.98 998.13 997.97 998.54 1000.23 1000.17 999.67 1000.78 1001.34 1002.01 1002.88 1003.40 1003.76 1004.22 1004.61 1005.15 1005.68 1006.47 1007.20 1007.64 1008.00 1008.39 1008.79 1009.47 1009.85 1010.23 1010.52 1010.72 1010.85 1011.37 1011.99 1012.62 1012.86 1012.76 1011.97 1010.96 1011.08
998.51 998.55 998.84 999.42 999.52 999.81 998.68 998.84 998.38 997.84 997.72 998.51 1000.06 1000.06 1000.79 1001.13 1001.98 1002.67 1003.35 1003.68 1004.24 1004.78 1005.05 1005.67 1006.30 1006.95 1007.61 1008.04 1008.48 1008.92 1009.52 1009.93 1010.12 1010.03 1010.34 1010.89 1011.20 1011.38 1012.22 1012.63 1012.56 1011.94 1011.01 1010.95
998.37 998.24 998.82 999.17 999.88 999.56 999.08 998.75 998.20 998.03 999.30 999.33 1001.35 1001.23 1000.05 1001.17 1001.68 1002.64 1003.22 1003.61 1004.29 1004.76 1005.17 1005.82 1006.49 1007.11 1007.58 1007.92 1008.50 1008.97 1009.46 1009.83 1009.99 1010.54 1010.87 1011.02 1011.09 1011.14 1012.03 1012.28 1011.93 1011.41 1011.08 1010.94
998.81 998.63 999.20 999.49 999.28 998.61 999.06 998.76 998.44 999.17 999.49 999.04 999.65 1001.28 1001.34 1001.04 1001.62 1002.43 1003.47 1003.64 1004.20 1004.70 1005.33 1006.06 1006.74 1007.37 1007.79 1008.27 1008.75 1009.13 1009.48 1009.65 1009.95 1010.34 1010.87 1011.18 1011.82 1011.85 1012.03 1012.11 1011.76 1011.16 1010.87 1010.83
999.45 998.42 998.86 999.02 999.04 999.44 998.51 998.65 999.32 997.99 999.82 1000.45 999.64 1000.52 1000.95 1001.52 1002.06 1002.81 1003.39 1004.06 1004.54 1005.06 1005.80 1006.41 1007.01 1007.55 1008.04 1008.50 1008.96 1009.25 1009.49 1009.46 1009.49 1010.04 1010.86 1011.34 1011.62 1011.94 1011.96 1011.61 1011.50 1010.99 1010.53 1010.74
999.49 999.07 999.96 999.95 999.51 999.50 999.20 998.74 998.95 998.63 998.53 999.42 999.73 1000.17 1001.32 1001.63 1002.40 1003.18 1003.57 1004.73 1005.54 1005.91 1006.30 1006.79 1007.40 1007.93 1008.30 1008.83 1009.26 1009.39 1009.52 1009.48 1009.41 1009.70 1010.25 1010.98 1011.33 1011.45 1011.06 1010.89 1010.83 1010.84 1010.53 1010.53
1000.09 999.19 999.05 1000.10 1002.17 1000.80 999.87 999.42 999.56 999.55 999.21 998.85 999.08 1000.21 1001.28 1001.80 1002.79 1003.79 1004.27 1004.90 1005.46 1006.00 1006.68 1007.16 1007.57 1008.45 1008.92 1009.23 1009.49 1009.55 1009.66 1009.69 1009.80 1009.88 1009.90 1010.09 1010.58 1010.93 1010.93 1010.77 1010.64 1010.52 1010.67 1010.31
1000.38 999.75 1000.30 1001.94 1002.01 1001.92 1000.24 999.95 999.82 999.95 1000.16 1000.24 999.83 1000.06 1000.52 1001.87 1002.85 1003.95 1004.74 1005.46 1006.06 1006.38 1006.81 1007.66 1008.20 1008.86 1009.22 1009.59 1009.76 1009.88 1010.00 1010.10 1010.24 1010.34 1010.33 1010.33 1010.27 1010.39 1010.57 1010.55 1010.36 1010.22 1010.18 1010.16
1000.02 1000.21 1000.93 1000.53 1000.41 1000.67 1000.43 1000.00 999.86 999.87 1000.05 1000.23 1000.47 1000.64 1001.51 1002.76 1003.50 1004.41 1005.14 1005.73 1006.25 1006.85 1007.52 1008.21 1008.73 1009.11 1009.44 1009.73 1009.98 1010.23 1010.32 1010.37 1010.33 1010.33 1010.32 1010.37 1010.46 1010.45 1010.29 1010.12 1009.98 1009.91 1009.75 1009.67
999.82 999.76 1000.73 1000.31 1000.59 1000.94 1000.19 999.57 999.42 999.63 1000.15 1000.23 1000.42 1001.39 1002.46 1003.40 1004.03 1004.61 1005.23 1005.74 1006.38 1007.17 1007.81 1008.24 1008.63 1009.18 1009.61 1009.89 1010.18 1010.36 1010.58 1010.63 1010.66 1010.61 1010.56 1010.51 1010.44 1010.36 1010.24 1010.10 1009.89 1009.63 1009.44 1009.42
1000.34 1000.83 1002.23 1001.14 1002.78 1001.49 999.71 999.84 1000.08 1000.09 1000.25 1000.39 1000.92 1001.62 1002.64 1003.38 1004.21 1004.81 1005.37 1005.73 1006.50 1007.23 1007.95 1008.29 1008.43 1008.93 1009.19 1009.32 1009.90 1010.42 1010.52 1010.77 1010.82 1010.78 1010.70 1010.60 1010.49 1010.31 1010.12 1009.92 1009.82 1009.75 1009.58 1009.39
1001.79 1002.62 1002.43 1002.79 1001.25 1000.25 999.53 999.21 999.52 1000.05 1000.25 1000.27 1001.36 1002.18 1003.22 1003.94 1004.42 1005.15 1005.39 1005.87 1006.56 1007.30 1007.87 1008.21 1008.47 1008.75 1009.61 1009.77 1010.03 1010.32 1010.40 1010.51 1010.70 1010.61 1010.62 1010.63 1010.58 1010.47 1010.25 1010.03 1009.85 1009.69 1009.53 1009.35
1001.37 1002.34 1002.37 1001.98 1001.36 1000.20 999.84 999.82 1000.28 1000.91 1000.56 1000.49 1001.63 1002.32 1003.38 1004.18 1003.99 1004.11 1005.56 1006.20 1006.80 1007.31 1007.78 1008.19 1008.28 1008.58 1008.68 1009.13 1009.17 1009.70 1010.09 1010.04 1010.20 1010.30 1010.35 1010.42 1010.47 1010.38 1010.21 1010.01 1009.84 1009.62 1009.37 1008.88
1001.11 1001.78 1001.50 1001.12 1000.95 1000.26 1000.10 1000.60 1001.29 1001.71 1001.79 1001.55 1001.96 1002.60 1003.31 1004.07 1004.99 1005.51 1006.16 1006.47 1006.95 1007.37 1007.94 1008.12 1008.48 1008.57 1008.72 1009.35 1009.75 1009.83 1009.83 1009.81 1010.06 1010.38 1010.35 1010.23 1010.17 1010.11 1009.97 1009.74 1009.59 1009.37 1009.18 1008.90
1001.33 1001.35 1001.03 1000.95 1001.12 1001.25 1001.60 1001.53 1001.91 1002.56 1002.76 1002.55 1002.81 1002.95 1003.57 1004.38 1005.68 1006.23 1006.59 1006.88 1007.38 1007.88 1008.28 1008.48 1008.71 1008.87 1009.18 1009.58 1010.06 1010.07 1010.03 1010.24 1010.54 1010.52 1010.36 1010.17 1010.04 1009.84 1009.31 1009.19 1009.11 1008.92 1008.70 1008.42
1002.00 1001.87 1001.85 1001.91 1001.74 1002.68 1002.55 1002.54 1003.05 1003.15 1003.23 1003.62 1003.69 1004.04 1004.39 1004.91 1005.48 1006.30 1006.69 1007.16 1007.67 1008.32 1008.61 1008.84 1009.14 1009.46 1009.61 1009.73 1010.38 1010.56 1010.51 1010.75 1010.76 1010.64 1010.41 1010.16 1009.87 1009.53 1009.18 1008.90 1008.68 1008.43 1008.01 1007.45
1001.76 1002.56 1002.76 1002.64 1002.23 1002.45 1003.09 1003.44 1003.94 1003.85 1003.58 1004.18 1004.47 1004.76 1005.16 1005.44 1006.19 1006.75 1007.20 1007.68 1008.30 1008.68 1009.01 1009.21 1009.37 1009.49 1009.58 1009.86 1010.29 1010.63 1010.65 1010.64 1010.66 1010.51 1010.25 1009.87 1009.42 1008.98 1008.61 1008.22 1007.63 1007.06 1006.61 1006.33
1002.22 1003.25 1002.98 1002.98 1002.99 1003.38 1003.77 1003.83 1003.93 1004.41 1004.61 1004.77 1005.11 1005.42 1005.79 1006.31 1006.66 1007.23 1007.85 1008.47 1008.88 1009.32 1009.48 1009.52 1009.78 1009.90 1009.94 1010.05 1010.16 1010.30 1010.39 1010.47 1010.45 1010.32 1009.96 1009.56 1008.94 1008.21 1007.58 1007.11 1006.70 1006.36 1006.04 1006.06
1002.50 1002.75 1003.07 1002.74 1003.38 1003.69 1003.91 1003.97 1004.52 1004.76 1005.01 1005.25 1005.64 1006.13 1006.68 1007.26 1007.54 1007.94 1008.35 1008.77 1009.16 1009.43 1009.90 1010.12 1010.16 1010.18 1010.15 1010.25 1010.31 1010.33 1010.37 1010.34 1010.18 1009.91 1009.42 1008.78 1008.46 1007.84 1007.12 1006.44 1005.75 1005.39 1005.41 1005.47
Thickness
5839 5826 5825 5855 5862 5849 5841 5836 5837 5851 5854 5844 5850 5849 5860 5852 5852 5847 5849 5846 5845 5838 5840 5842 5838 5838 5824 5820 5811 5806 5802 5798 5795 5794 5790 5788 5789 5792 5793 5792 5791 5788 5786 5785
5835 5820 5856 5867 5850 5840 5840 5836 5845 5856 5854 5847 5850 5846 5859 5853 5850 5848 5844 5843 5841 5836 5835 5837 5838 5838 5831 5821 5818 5807 5803 5798 5793 5794 5793 5795 5793 5796 5795 5793 5791 5789 5789 5784
5829 5845 5863 5847 5840 5830 5840 5844 5848 5841 5852 5858 5850 5812 5842 5847 5849 5849 5848 5847 5844 5835 5829 5834 5835 5836 5835 5828 5820 5812 5806 5802 5796 5794 5795 5793 5793 5794 5790 5790 5788 5792 5790 5787
5835 5864 5842 5837 5832 5844 5837 5867 5848 5840 5831 5827 5860 5766 5830 5841 5842 5842 5846 5844 5838 5832 5836 5835 5839 5836 5834 5831 5827 5818 5811 5805 5799 5796 5792 5791 5790 5785 5792 5789 5791 5791 5788 5790
5829 5841 5833 5829 5839 5855 5841 5853 5846 5846 5838 5849 5853 5781 5732 5845 5832 5836 5840 5841 5841 5837 5836 5829 5834 5841 5836 5833 5827 5821 5813 5806 5802 5797 5791 5790 5785 5785 5787 5791 5789 5788 5789 5786
5844 5862 5851 5845 5855 5852 5853 5841 5845 5848 5847 5821 5834 5838 5740 5797 5835 5837 5839 5836 5838 5836 5838 5832 5831 5834 5829 5828 5823 5818 5809 5802 5799 5791 5789 5783 5779 5776 5774 5777 5782 5782 5788 5788
5827 5836 5849 5854 5837 5852 5844 5835 5819 5818 5822 5784 5837 5838 5768 5839 5849 5844 5837 5834 5836 5838 5833 5833 5825 5822 5819 5816 5815 5812 5806 5798 5795 5788 5783 5781 5771 5763 5755 5763 5765 5777 5786 5782
5814 5804 5839 5855 5839 5839 5846 5850 5830 5799 5805 5802 5850 5834 5828 5856 5857 5848 5843 5840 5838 5835 5833 5830 5825 5819 5816 5814 5811 5807 5799 5794 5791 5785 5779 5773 5762 5755 5751 5753 5758 5770 5784 5787
5832 5830 5866 5862 5864 5855 5851 5833 5868 5848 5863 5842 5829 5845 5853 5857 5847 5844 5837 5837 5832 5831 5832 5829 5827 5823 5818 5814 5810 5805 5798 5792 5788 5785 5779 5766 5757 5755 5750 5750 5752 5764 5780 5785
5856 5830 5857 5859 5859 5860 5851 5869 5838 5849 5786 5796 5781 5806 5818 5829 5834 5836 5833 5832 5830 5831 5830 5827 5823 5819 5818 5816 5811 5806 5799 5792 5788 5779 5771 5762 5758 5757 5751 5751 5754 5765 5775 5782
5857 5846 5833 5848 5838 5844 5843 5842 5853 5842 5833 5813 5805 5793 5830 5838 5841 5835 5830 5835 5833 5830 5827 5823 5819 5817 5813 5811 5806 5802 5797 5793 5787 5779 5770 5761 5749 5745 5743 5749 5754 5763 5773 5778
5850 5854 5825 5836 5860 5863 5864 5846 5840 5839 5801 5817 5830 5807 5851 5845 5843 5838 5833 5831 5832 5828 5823 5819 5815 5812 5807 5803 5800 5797 5794 5792 5789 5781 5769 5760 5755 5750 5747 5750 5753 5761 5772 5778
5848 5835 5790 5811 5841 5853 5842 5857 5854 5858 5859 5825 5812 5816 5847 5845 5838 5835 5830 5824 5819 5818 5816 5813 5807 5803 5801 5796 5793 5793 5791 5790 5789 5783 5776 5765 5758 5756 5759 5761 5764 5766 5771 5773
5846 5843 5834 5793 5777 5820 5820 5838 5842 5838 5824 5832 5836 5818 5822 5825 5822 5822 5823 5822 5819 5814 5809 5805 5802 5794 5793 5790 5787 5787 5786 5785 5783 5780 5778 5774 5767 5762 5762 5764 5765 5767 5767 5772
5836 5821 5823 5799 5804 5808 5829 5828 5831 5820 5822 5806 5827 5825 5839 5823 5823 5819 5820 5815 5808 5805 5803 5797 5792 5787 5786 5783 5781 5780 5780 5778 5775 5772 5770 5769 5771 5769 5766 5766 5769 5771 5770 5768
5844 5813 5808 5817 5834 5829 5818 5830 5831 5830 5827 5823 5823 5819 5831 5828 5825 5814 5810 5807 5801 5797 5793 5789 5785 5782 5778 5776 5774 5772 5770 5770 5771 5767 5766 5766 5764 5763 5763 5765 5765 5765 5767 5767
5833 5834 5811 5807 5822 5811 5802 5825 5832 5829 5829 5826 5808 5813 5820 5811 5808 5808 5806 5803 5796 5790 5786 5782 5780 5777 5773 5771 5769 5765 5763 5763 5759 5757 5756 5757 5758 5757 5758 5759 5760 5759 5761 5762
5818 5809 5776 5794 5774 5746 5822 5841 5833 5822 5824 5829 5823 5818 5816 5811 5811 5810 5808 5800 5792 5786 5781 5779 5778 5774 5774 5774 5768 5762 5761 5756 5752 5749 5749 5749 5749 5749 5752 5754 5754 5754 5755 5755
5809 5784 5775 5756 5785 5807 5824 5836 5823 5809 5805 5828 5812 5808 5807 5807 5805 5795 5804 5801 5791 5785 5781 5779 5777 5772 5765 5763 5762 5756 5752 5751 5747 5745 5744 5742 5742 5741 5743 5743 5746 5748 5749 5749
5811 5798 5787 5786 5767 5767 5812 5832 5833 5822 5784 5825 5813 5805 5798 5797 5778 5787 5797 5793 5786 5783 5780 5774 5773 5770 5767 5765 5765 5755 5749 5747 5743 5741 5740 5739 5738 5736 5735 5737 5738 5741 5743 5746
5789 5784 5780 5789 5780 5802 5822 5822 5821 5766 5780 5813 5811 5805 5798 5785 5784 5787 5788 5784 5783 5779 5773 5772 5766 5761 5761 5758 5752 5745 5744 5742 5741 5737 5735 5734 5733 5732 5733 5733 5734 5735 5734 5735
5778 5775 5782 5790 5773 5764 5810 5807 5780 5789 5801 5804 5803 5802 5795 5789 5781 5778 5777 5773 5770 5766 5763 5761 5755 5751 5752 5749 5742 5736 5734 5735 5731 5729 5728 5727 5727 5727 5730 5729 5728 5729 5730 5730
5763 5781 5775 5779 5776 5790 5801 5796 5798 5801 5791 5790 5790 5790 5787 5781 5774 5771 5767 5764 5760 5753 5751 5749 5742 5738 5738 5739 5731 5723 5724 5724 5721 5720 5719 5718 5720 5722 5723 5721 5721 5721 5724 5727
5782 5785 5769 5771 5785 5785 5787 5789 5787 5790 5787 5787 5784 5780 5777 5769 5765 5759 5756 5751 5746 5743 5737 5736 5732 5729 5727 5727 5723 5718 5717 5717 5713 5711 5710 5713 5713 5715 5717 5720 5724 5726 5726 5727
5774 5765 5762 5762 5773 5773 5775 5777 5780 5777 5778 5775 5773 5769 5764 5759 5753 5748 5742 5736 5732 5728 5725 5724 5719 5716 5715 5716 5713 5712 5710 5708 5705 5704 5705 5705 5708 5712 5715 5718 5720 5722 5725 5723
5772 5759 5751 5753 5761 5764 5761 5771 5772 5765 5763 5764 5759 5753 5751 5745 5738 5735 5729 5726 5721 5717 5712 5708 5706 5705 5705 5703 5701 5700 5699 5698 5696 5696 5698 5702 5702 5705 5709 5712 5715 5719 5717 5714